Location: Unspecified
(46.6633°N, 0.0000°E)
Time: 13:35:07
(UTC+00:00)

NOAA 16 DEB - Visible Passes

Search period start: 04 April 2026 00:00
Search period end: 14 April 2026 00:00
Orbit: 701 x 742 km, 98.9° (Epoch: 27 March)

Date Brightness Start Highest point End Pass type
(mag) Time Alt. Az. Time Alt. Az. Time Alt. Az.
4 Apr ? 02:52:04 10° ENE 02:52:34 10° NE 02:53:02 10° NE visible
4 Apr ? 04:24:54 10° SSE 04:29:38 64° ENE 04:34:27 10° N visible
4 Apr ? 19:42:02 10° NNW 19:44:23 13° NW 19:46:44 10° W visible
5 Apr ? 03:36:32 10° ESE 03:40:23 24° ENE 03:44:17 10° N visible
6 Apr ? 04:23:48 10° SSE 04:28:32 62° ENE 04:33:22 10° N visible
6 Apr ? 19:40:50 10° NNW 19:43:18 14° NW 19:45:47 10° W visible
7 Apr ? 03:35:29 10° ESE 03:39:17 24° ENE 03:43:08 10° N visible
8 Apr ? 04:22:40 10° SSE 04:27:24 60° ENE 04:32:13 10° N visible
8 Apr ? 19:39:35 10° NNW 19:42:11 14° NW 19:44:46 10° W visible
9 Apr ? 03:34:22 10° ESE 03:38:08 23° ENE 03:41:56 10° N visible
10 Apr ? 04:21:29 10° SSE 04:26:12 58° ENE 04:31:01 10° N visible
10 Apr ? 19:38:17 10° NNW 19:40:59 15° NW 19:43:42 10° W visible
11 Apr ? 03:33:13 10° ESE 03:36:56 22° ENE 03:40:41 10° N visible
12 Apr ? 04:20:15 10° SSE 04:24:58 55° ENE 04:29:46 10° N visible
12 Apr ? 19:36:56 10° NNW 19:39:46 15° WNW 19:42:35 10° W visible
13 Apr ? 03:32:01 10° ESE 03:35:41 22° ENE 03:39:22 10° NNE visible
